Index of /20260423/WXO-DD/model_gdps/15km/12/049
Name Last modified Size Description
Parent Directory -
20260423T12Z_MSC_GDPS_AirTemp_AGL-120m_LatLon0.15_PT049H.grib2 2026-04-23 16:01 911K
20260423T12Z_MSC_GDPS_AirTemp_AGL-2m_LatLon0.15_PT049H.grib2 2026-04-23 16:01 1.0M
20260423T12Z_MSC_GDPS_AirTemp_AGL-40m_LatLon0.15_PT049H.grib2 2026-04-23 16:01 816K
20260423T12Z_MSC_GDPS_AirTemp_AGL-80m_LatLon0.15_PT049H.grib2 2026-04-23 16:01 804K
20260423T12Z_MSC_GDPS_Albedo_Sfc_LatLon0.15_PT049H.grib2 2026-04-23 16:01 245K
20260423T12Z_MSC_GDPS_ConvectivePrecip-Accum_Sfc_LatLon0.15_PT049H.grib2 2026-04-23 16:01 2.8M
20260423T12Z_MSC_GDPS_DewPointDepression_AGL-2m_LatLon0.15_PT049H.grib2 2026-04-23 16:01 760K
20260423T12Z_MSC_GDPS_DewPoint_AGL-2m_LatLon0.15_PT049H.grib2 2026-04-23 16:01 613K
20260423T12Z_MSC_GDPS_DownwardLongwaveRadiationFlux-Accum_Sfc_LatLon0.15_PT049H.grib2 2026-04-23 16:01 824K
20260423T12Z_MSC_GDPS_DownwardShortwaveRadiationFlux-Accum_Sfc_LatLon0.15_PT049H.grib2 2026-04-23 16:01 1.0M
20260423T12Z_MSC_GDPS_FreezingRain-Accum1h_Sfc_LatLon0.15_PT049H.grib2 2026-04-23 16:01 65K
20260423T12Z_MSC_GDPS_FreezingRain-Accum_Sfc_LatLon0.15_PT049H.grib2 2026-04-23 16:01 235K
20260423T12Z_MSC_GDPS_IcePellets-Accum1h_Sfc_LatLon0.15_PT049H.grib2 2026-04-23 16:01 31K
20260423T12Z_MSC_GDPS_IcePellets-Accum_Sfc_LatLon0.15_PT049H.grib2 2026-04-23 16:01 82K
20260423T12Z_MSC_GDPS_LatentHeatNetFlux_Sfc_LatLon0.15_PT049H.grib2 2026-04-23 16:01 716K
20260423T12Z_MSC_GDPS_NetLongwaveRadiationFlux-Accum_Sfc_LatLon0.15_PT049H.grib2 2026-04-23 16:01 1.1M
20260423T12Z_MSC_GDPS_NetShortwaveRadiationFlux-Accum_Sfc_LatLon0.15_PT049H.grib2 2026-04-23 16:01 1.0M
20260423T12Z_MSC_GDPS_O3MixingRatio_LatLon0.15_PT049H.grib2 2026-04-23 16:51 2.3M
20260423T12Z_MSC_GDPS_O3_EAtm_LatLon0.15_PT049H.grib2 2026-04-23 16:51 2.5M
20260423T12Z_MSC_GDPS_PlanetaryBoundaryLayerHeight_Sfc_LatLon0.15_PT049H.grib2 2026-04-23 16:01 2.5M
20260423T12Z_MSC_GDPS_Precip-Accum1h_Sfc_LatLon0.15_PT049H.grib2 2026-04-23 16:01 3.4M
20260423T12Z_MSC_GDPS_Precip-Accum_Sfc_LatLon0.15_PT049H.grib2 2026-04-23 16:01 4.9M
20260423T12Z_MSC_GDPS_PrecipRate_Sfc_LatLon0.15_PT049H.grib2 2026-04-23 16:01 3.1M
20260423T12Z_MSC_GDPS_Pressure_MSL_LatLon0.15_PT049H.grib2 2026-04-23 16:01 720K
20260423T12Z_MSC_GDPS_Pressure_Sfc_LatLon0.15_PT049H.grib2 2026-04-23 16:01 1.1M
20260423T12Z_MSC_GDPS_RadiativeTemp_Sfc_LatLon0.15_PT049H.grib2 2026-04-23 16:01 502K
20260423T12Z_MSC_GDPS_Rain-Accum1h_Sfc_LatLon0.15_PT049H.grib2 2026-04-23 16:01 1.7M
20260423T12Z_MSC_GDPS_Rain-Accum_Sfc_LatLon0.15_PT049H.grib2 2026-04-23 16:01 3.6M
20260423T12Z_MSC_GDPS_RelativeHumidity_AGL-2m_LatLon0.15_PT049H.grib2 2026-04-23 16:01 1.1M
20260423T12Z_MSC_GDPS_Runoff-Accum_Sfc_LatLon0.15_PT049H.grib2 2026-04-23 16:01 110K
20260423T12Z_MSC_GDPS_SensibleHeatNetFlux_Sfc_LatLon0.15_PT049H.grib2 2026-04-23 16:01 648K
20260423T12Z_MSC_GDPS_Snow-Accum1h_Sfc_LatLon0.15_PT049H.grib2 2026-04-23 16:01 1.1M
20260423T12Z_MSC_GDPS_Snow-Accum_Sfc_LatLon0.15_PT049H.grib2 2026-04-23 16:01 1.8M
20260423T12Z_MSC_GDPS_SnowDepth_Sfc_LatLon0.15_PT049H.grib2 2026-04-23 16:01 1.8M
20260423T12Z_MSC_GDPS_SoilTemp_DBS-0to10cm_LatLon0.15_PT049H.grib2 2026-04-23 16:01 503K
20260423T12Z_MSC_GDPS_SoilTemp_Sfc_LatLon0.15_PT049H.grib2 2026-04-23 16:01 575K
20260423T12Z_MSC_GDPS_SoilVolumetricWaterContent_DBS-0to10cm_LatLon0.15_PT049H.grib2 2026-04-23 16:01 562K
20260423T12Z_MSC_GDPS_SoilVolumetricWaterContent_DBS-0to1cm_LatLon0.15_PT049H.grib2 2026-04-23 16:01 649K
20260423T12Z_MSC_GDPS_SpecificHumidity_AGL-120m_LatLon0.15_PT049H.grib2 2026-04-23 16:01 1.1M
20260423T12Z_MSC_GDPS_SpecificHumidity_AGL-2m_LatLon0.15_PT049H.grib2 2026-04-23 16:01 1.2M
20260423T12Z_MSC_GDPS_SpecificHumidity_AGL-40m_LatLon0.15_PT049H.grib2 2026-04-23 16:01 1.1M
20260423T12Z_MSC_GDPS_SpecificHumidity_AGL-80m_LatLon0.15_PT049H.grib2 2026-04-23 16:01 1.1M
20260423T12Z_MSC_GDPS_SpecificHumidity_Sfc_LatLon0.15_PT049H.grib2 2026-04-23 16:01 592K
20260423T12Z_MSC_GDPS_TotalCloudCover_Sfc_LatLon0.15_PT049H.grib2 2026-04-23 16:01 849K
20260423T12Z_MSC_GDPS_UVIndex-ClearSky_Sfc_LatLon0.15_PT049H.grib2 2026-04-23 16:51 1.0M
20260423T12Z_MSC_GDPS_UVIndex_Sfc_LatLon0.15_PT049H.grib2 2026-04-23 16:51 1.5M
20260423T12Z_MSC_GDPS_UpwardLongwaveRadiationFlux_NTAtm_LatLon0.15_PT049H.grib2 2026-04-23 16:01 850K
20260423T12Z_MSC_GDPS_WindDir_AGL-10m_LatLon0.15_PT049H.grib2 2026-04-23 16:01 1.3M
20260423T12Z_MSC_GDPS_WindDir_AGL-120m_LatLon0.15_PT049H.grib2 2026-04-23 16:01 1.4M
20260423T12Z_MSC_GDPS_WindDir_AGL-40m_LatLon0.15_PT049H.grib2 2026-04-23 16:01 1.4M
20260423T12Z_MSC_GDPS_WindDir_AGL-80m_LatLon0.15_PT049H.grib2 2026-04-23 16:01 1.4M
20260423T12Z_MSC_GDPS_WindDir_IsbL-0700_LatLon0.15_PT049H.grib2 2026-04-23 16:01 1.6M
20260423T12Z_MSC_GDPS_WindGust-Max_AGL-10m_LatLon0.15_PT049H.grib2 2026-04-23 16:01 2.2M
20260423T12Z_MSC_GDPS_WindGust-Min_AGL-10m_LatLon0.15_PT049H.grib2 2026-04-23 16:01 2.2M
20260423T12Z_MSC_GDPS_WindGust_AGL-10m_LatLon0.15_PT049H.grib2 2026-04-23 16:01 2.2M
20260423T12Z_MSC_GDPS_WindSpeed_AGL-10m_LatLon0.15_PT049H.grib2 2026-04-23 16:01 1.1M
20260423T12Z_MSC_GDPS_WindSpeed_AGL-120m_LatLon0.15_PT049H.grib2 2026-04-23 16:01 1.2M
20260423T12Z_MSC_GDPS_WindSpeed_AGL-40m_LatLon0.15_PT049H.grib2 2026-04-23 16:01 1.2M
20260423T12Z_MSC_GDPS_WindSpeed_AGL-80m_LatLon0.15_PT049H.grib2 2026-04-23 16:01 1.2M
20260423T12Z_MSC_GDPS_WindSpeed_IsbL-0700_LatLon0.15_PT049H.grib2 2026-04-23 16:01 1.5M
20260423T12Z_MSC_GDPS_WindU_AGL-10m_LatLon0.15_PT049H.grib2 2026-04-23 16:01 1.3M
20260423T12Z_MSC_GDPS_WindU_AGL-120m_LatLon0.15_PT049H.grib2 2026-04-23 16:01 1.0M
20260423T12Z_MSC_GDPS_WindU_AGL-40m_LatLon0.15_PT049H.grib2 2026-04-23 16:01 971K
20260423T12Z_MSC_GDPS_WindU_AGL-80m_LatLon0.15_PT049H.grib2 2026-04-23 16:01 1.0M
20260423T12Z_MSC_GDPS_WindU_IsbL-0700_LatLon0.15_PT049H.grib2 2026-04-23 16:01 1.2M
20260423T12Z_MSC_GDPS_WindV_AGL-10m_LatLon0.15_PT049H.grib2 2026-04-23 16:01 1.6M
20260423T12Z_MSC_GDPS_WindV_AGL-120m_LatLon0.15_PT049H.grib2 2026-04-23 16:01 973K
20260423T12Z_MSC_GDPS_WindV_AGL-40m_LatLon0.15_PT049H.grib2 2026-04-23 16:01 969K
20260423T12Z_MSC_GDPS_WindV_AGL-80m_LatLon0.15_PT049H.grib2 2026-04-23 16:01 1.0M
20260423T12Z_MSC_GDPS_WindV_IsbL-0700_LatLon0.15_PT049H.grib2 2026-04-23 16:01 1.2M